Starlink 34451

operational
NORAD ID: 64433 Int'l Des: 2025-129 Owner: SPXS Country: US Constellation: starlink
LEOCIRCULAR

About Starlink 34451

Description loading...

Live Position

Loading 3D Globe...

Upcoming Passes

Altitude History

Altitude vs Time

uPlot chart will show altitude changes over time

Two-Line Element Set

1 64433U 25129X 25277.53915508 .00005197 00000-0 44297-3 0 9999
2 64433 70.0002 108.3201 0002284 274.7062 85.3836 14.98334788 17837
Epoch: Oct 4, 2025 • Age: 11 hours

Current Status

Altitude 586.4 km
Velocity 7.57 km/s
Sub-Earth Point -42.07°S, 74.87°E
Launch Date Jun 17, 2025
Age 0.2 years
Type internet

Technical Details

Classification Payload
Mass 575.00 kg
Dry Mass 530.00 kg
Total Mass 575.00 kg
Length 0.30 m
Diameter 4.10 m
Span 29.00 m
Shape Box + pan
Manufacturer SPXS
Bus Type Starlink V2MO
Phase Status In Orbit
Owner/State SPXS/US

Large Constellations

Loading constellations...